Content
SEND FEEDBACK

Daily
Averages
Monthly
Summary
France

ANGERS, FRANCE


Home > Europe > France
Elevation: 121 feet     Latitude: 47 30N     Longitude: 000 30W

WEATHER
 
SELECT A DAY
Number of Records: 97,649;   Date Range: 7/1/96 - 7/27/14
 
SHARE

PRINT THIS DATA

[ ← Previous Day ]
WEATHER ALMANAC - JANUARY 31, 2013
[ Next Day → ]
[ °C ]   °F
Weather ElementAverageHighLow
Temperature49.8 °F55.4 °F (12:00 pm)41 °F (12:30 am)
Dewpoint48.1 °F51.8 °F (9:00 pm)41 °F (12:30 am)
Humidity94.3 %100 % (12:30 am)79 % (1:00 pm)
Barometer30.23 in30.32 in (1:00 am)30.15 in (11:30 pm)
Wind Speed9.6 mph17.3 mph (12:30 pm)
Weather ElementAverage
Visibility4.9 mi
Wind DirectionSSW (217.1 °)

Weather ElementTotal
Precipitation---
Heating Degree Days16.8 (Base 65)
Averaged from 51 records on January 31, 2013
WEATHER CONDITIONS BREAKOUT
WIND DIRECTION BREAKOUT
WEATHER BY HOUR - JANUARY 31, 2013
[ °C ]   °F
Local TimeTemperatureDewpointHumidityBarometerVisibilityWind DirectionWind SpeedGust SpeedPrecipitationEventsConditions
12:30 AM41.0 °F41.0 °F100 %30.30 in0.2 miSouth (180°)4.6 mphFogFog
1:00 AM42.0 °F42.0 °F99 %30.32 in0.0 miSouth (180°)5.8 mphFogPartial Fog
1:00 AM41.0 °F41.0 °F100 %30.30 in0.2 miSouth (180°)5.8 mphFogFog
1:30 AM41.0 °F41.0 °F100 %30.30 in0.2 miSouth (180°)5.8 mphFogFog
2:00 AM42.8 °F42.8 °F100 %30.30 in0.2 miSouth (170°)5.8 mphFogFog
2:30 AM42.8 °F42.8 °F100 %30.27 in0.2 miSouth (180°)6.9 mphFogFog
3:00 AM42.8 °F42.8 °F100 %30.27 in0.2 miSouth (180°)6.9 mphFogFog
3:30 AM42.8 °F42.8 °F100 %30.27 in0.3 miSouth (180°)6.9 mphFogFog
4:00 AM42.8 °F42.8 °F100 %30.27 in0.2 miSouth (170°)5.8 mphFogFog
4:30 AM41.0 °F41.0 °F100 %30.24 in0.1 miSouth (170°)5.8 mphFogFog
5:00 AM42.8 °F42.8 °F100 %30.24 in1.0 miSSE (160°)4.6 mphFogFog
5:30 AM44.6 °F44.6 °F100 %30.24 in6.2 miSSE (160°)4.6 mphMostly Cloudy
6:00 AM48.2 °F48.2 °F100 %30.21 in6.2 miSSW (200°)10.4 mphOvercast
6:30 AM48.2 °F48.2 °F100 %30.21 in6.2 miSSW (200°)10.4 mphOvercast
7:00 AM49.0 °F49.0 °F99 %30.24 in8.0 miSSW (200°)10.4 mphClear
7:00 AM48.2 °F48.2 °F100 %30.21 in6.2 miSSW (200°)10.4 mphOvercast
7:30 AM48.2 °F48.2 °F100 %30.21 in6.2 miSSW (210°)8.1 mphOvercast
8:00 AM50.0 °F50.0 °F100 %30.21 in6.2 miSSW (210°)6.9 mphMostly Cloudy
8:30 AM50.0 °F50.0 °F100 %30.21 in6.2 miSSW (210°)8.1 mphMostly Cloudy
9:00 AM48.2 °F48.2 °F100 %30.24 in6.2 miSW (220°)6.9 mphMostly Cloudy
9:30 AM48.2 °F48.2 °F100 %30.21 in6.2 miSW (230°)9.2 mphMostly Cloudy
10:00 AM50.0 °F50.0 °F100 %30.21 in6.2 miSSW (210°)8.1 mphMostly Cloudy
10:30 AM51.8 °F50.0 °F94 %30.24 in6.2 miSW (220°)9.2 mphMostly Cloudy
11:00 AM53.6 °F50.0 °F88 %30.24 in6.2 miSW (230°)10.4 mphMostly Cloudy
11:30 AM53.6 °F50.0 °F88 %30.27 in6.2 miWSW (240°)13.8 mphMostly Cloudy
12:00 PM55.4 °F50.0 °F82 %30.24 in6.2 miWSW (240°)13.8 mphMostly Cloudy
12:30 PM55.4 °F50.0 °F82 %30.24 in6.2 miWSW (240°)17.3 mphMostly Cloudy
1:00 PM54.0 °F49.0 °F79 %30.27 in9.0 miWSW (250°)12.7 mphMostly Cloudy
1:00 PM53.6 °F50.0 °F88 %30.24 in6.2 miWSW (250°)12.7 mphMostly Cloudy
1:30 PM53.6 °F50.0 °F88 %30.24 in6.2 miWSW (240°)15.0 mphMostly Cloudy
2:00 PM53.6 °F50.0 °F88 %30.24 in6.2 miWSW (250°)13.8 mphMostly Cloudy
2:30 PM55.4 °F50.0 °F82 %30.24 in6.2 miWSW (250°)13.8 mphMostly Cloudy
3:00 PM55.4 °F50.0 °F82 %30.24 in6.2 miWSW (250°)13.8 mphScattered Clouds
3:30 PM55.4 °F50.0 °F82 %30.24 in6.2 miWSW (250°)13.8 mphMostly Cloudy
4:00 PM53.6 °F50.0 °F88 %30.24 in6.2 miWSW (250°)13.8 mphScattered Clouds
4:30 PM53.6 °F50.0 °F88 %30.21 in6.2 miWest (260°)15.0 mphMostly Cloudy
5:00 PM53.6 °F50.0 °F88 %30.21 in6.2 miWSW (250°)11.5 mphMostly Cloudy
5:30 PM53.6 °F50.0 °F88 %30.21 in6.2 miWSW (240°)10.4 mphMostly Cloudy
6:00 PM53.6 °F50.0 °F88 %30.21 in6.2 miWSW (240°)9.2 mphMostly Cloudy
6:30 PM53.6 °F50.0 °F88 %30.21 in6.2 miSW (230°)11.5 mphMostly Cloudy
7:00 PM53.0 °F50.0 °F85 %30.24 in7.0 miWSW (240°)10.4 mphMostly Cloudy
7:00 PM51.8 °F50.0 °F94 %30.21 in6.2 miSW (230°)10.4 mphMostly Cloudy
7:30 PM51.8 °F50.0 °F94 %30.21 in6.2 miWSW (240°)9.2 mphMostly Cloudy
8:00 PM51.8 °F50.0 °F94 %30.21 in6.2 miWSW (240°)9.2 mphMostly Cloudy
8:30 PM51.8 °F50.0 °F94 %30.21 in6.2 miWSW (240°)8.1 mphRainLight Rain
9:00 PM51.8 °F51.8 °F100 %30.21 in6.2 miSW (220°)8.1 mphRainLight Rain
9:30 PM51.8 °F51.8 °F100 %30.18 in6.2 miSW (220°)9.2 mphRainLight Rain
10:00 PM51.8 °F51.8 °F100 %30.18 in6.2 miSSW (210°)9.2 mphRainLight Rain
10:30 PM51.8 °F51.8 °F100 %30.18 in3.7 miSW (220°)9.2 mphRainLight Rain
11:00 PM51.8 °F51.8 °F100 %30.18 in3.7 miSW (220°)9.2 mphRainLight Rain
11:30 PM51.8 °F51.8 °F100 %30.15 in5.0 miSW (230°)9.2 mphRainLight Rain
Hourly data recorded from LFJR, located miles away from Angers, France







STORIES FROM OUR PARTNERS